Location: Unspecified
(0.0000°N, 0.0000°E)
Time: 01:18:32
(UTC+00:00)

deb Delta 104 - Pass Details

Date: 09 March 2026
Orbit: 1339 x 1585 km, 100.8° (Epoch: 14 April)

Event Time Altitude Azimuth Distance (km) Brightness Sun altitude
Exits shadow 20:47:46 21° 173° (S) 2,984 ? -39.2°
Drops below altitude 10° 20:50:20 10° 180° (S) 3,788 ? -39.8°
Sets 20:53:19 0° 184° (S) 4,778 ? -40.6°
